Regional Weather Roundup
Issued by NWS

Home | Current Version | Previous Version | Text Only | Print | Product List | Glossary On
Versions: 1 2 3 4 5 6 7 8 9 10 11 12 13 14 15 16 17 18 19 20 21 22 23 24 25 26 27 28 29 30 31 32 33 34 35 36 37 38 39 40 41 42 43 44 45 46 47 48 49 50
992
ASUS45 KPSR 211810
RWRAZ

ARIZONA HOURLY REGIONAL WEATHER ROUNDUP
NATIONAL WEATHER SERVICE PHOENIX AZ
1100 AM MST WED AUG 21 2019

NOTE: FAIR INDICATES FEW OR NO CLOUDS BELOW 12,000 FEET WITH NO
SIGNIFICANT WEATHER AND/OR OBSTRUCTIONS TO VISIBILITY.

AZZ001>003-036-211900-
NORTHWEST ARIZONA

CITY           SKY/WX    TMP DP  RH WIND       PRES   REMARKS
BULLHEAD CITY  SUNNY     99  18   5 SW5       29.80S
KINGMAN        SUNNY     98  17   5 W10       30.02R
6HR MIN TEMP:  63; 6HR MAX TEMP:  99;

$$

AZZ004>008-015-016-018-211900-
NORTH CENTRAL ARIZONA

CITY           SKY/WX    TMP DP  RH WIND       PRES   REMARKS
GRAND CANYON   SUNNY     85  26  11 SW7G18    30.27S
6HR MIN TEMP:  44; 6HR MAX TEMP:  85;

WILLIAMS       SUNNY     84  23  10 SW9G20    30.28
PRESCOTT       SUNNY     91  21   8 S12       30.15S
6HR MIN TEMP:  60; 6HR MAX TEMP:  91;

FLAGSTAFF      SUNNY     81  25  12 SW12G24   30.30F
6HR MIN TEMP:  49; 6HR MAX TEMP:  82;

PAYSON         SUNNY     91  34  13 S8G15     30.18
PAGE           SUNNY     92  28  10 VRB7      30.06F
6HR MIN TEMP:  71; 6HR MAX TEMP:  92;

$$

AZZ009>014-017-211900-
NORTHEAST ARIZONA

CITY           SKY/WX    TMP DP  RH WIND       PRES   REMARKS
WINSLOW        SUNNY     97  36  12 W17G23    30.12F
6HR MIN TEMP:  63; 6HR MAX TEMP:  97;

SAINT JOHNS    SUNNY     90  40  17 W12       30.20F
6HR MIN TEMP:  60; 6HR MAX TEMP:  90;

WINDOW ROCK    SUNNY     87  37  17 W14G22    30.28F
6HR MIN TEMP:  50; 6HR MAX TEMP:  88;

SHOW LOW       SUNNY     88  36  15 W14       30.28F
$$

AZZ540-542>544-546-548-211900-
GREATER PHOENIX AREA

CITY           SKY/WX    TMP DP  RH WIND       PRES   REMARKS
PHOENIX        MOSUNNY  104  43  12 VRB5      29.80F
6HR MIN TEMP:  85; 6HR MAX TEMP: 104;

BUCKEYE        SUNNY    100  41  13 VRB5      29.82
GLENDALE       SUNNY    102  43  13 SE3       29.83S
LUKE AFB       SUNNY    103  38  10 E3        29.80F
6HR MIN TEMP:  79; 6HR MAX TEMP: 103;

DEER VALLEY    SUNNY    102  42  13 VRB3      29.84F
SCOTTSDALE     SUNNY    103  42  12 SW7       29.85F
6HR MIN TEMP:  82; 6HR MAX TEMP: 103;

MESA-FALCON    SUNNY    102  46  15 SW6       29.83F
6HR MIN TEMP:  84; 6HR MAX TEMP: 102;

MESA-GATEWAY   MOSUNNY  104  48  15 VRB3      29.84F HX 100
CHANDLER       MOSUNNY  100  46  16 S6        29.82F
$$

AZZ539-553-211900-
SOUTHWEST MARICOPA COUNTY AND PINAL COUNTY

CITY           SKY/WX    TMP DP  RH WIND       PRES   REMARKS
CASA GRANDE    SUNNY    103  39  11 CALM      29.84F
6HR MIN TEMP:  75; 6HR MAX TEMP: 104;

GILA BEND      FAIR     106  16   4 CALM      29.78S
6HR MIN TEMP:  81; 6HR MAX TEMP: 106;

$$

AZZ503-504-507>509-211900-
SOUTHEAST ARIZONA

CITY           SKY/WX    TMP DP  RH WIND       PRES   REMARKS
TUCSON         SUNNY    100  53  20 SE5       29.95F
6HR MIN TEMP:  78; 6HR MAX TEMP: 101;

DAVIS-MONTHAN  SUNNY     99  53  21 CALM      29.94
6HR MIN TEMP:  78; 6HR MAX TEMP:  99;

RYAN FIELD     SUNNY    102  46  15 W6        29.93F
NOGALES        SUNNY     94  55  26 MISG      30.07S
SIERRA VISTA   SUNNY     91  53  27 NW3       30.13
6HR MIN TEMP:  73; 6HR MAX TEMP:  91;

DOUGLAS        SUNNY     91  51  25 S9        30.08F
6HR MIN TEMP:  67; 6HR MAX TEMP:  91;

SAFFORD        SUNNY     98  49  18 VRB7      29.98F
6HR MIN TEMP:  79; 6HR MAX TEMP:  98;

$$

AZZ532-211900-
SOUTHWEST ARIZONA

CITY           SKY/WX    TMP DP  RH WIND       PRES   REMARKS
YUMA           SUNNY    104  40  11 NW3       29.74F
6HR MIN TEMP:  79; 6HR MAX TEMP: 105;

$$

CAZ041-043-047-048-061-525>527-560>570-211900-
SOUTHERN CALIFORNIA

CITY           SKY/WX    TMP DP  RH WIND       PRES   REMARKS
DOWNTOWN L.A.  SUNNY     87  59  38 CALM      29.85F
6HR MIN TEMP:  63; 6HR MAX TEMP:  87;

L.A. AIRPORT   SUNNY     78  64  61 W10       29.87S
6HR MIN TEMP:  66; 6HR MAX TEMP:  79;

SAN DIEGO      MOSUNNY   73  64  73 W7        29.89S
6HR MIN TEMP:  66; 6HR MAX TEMP:  75;

BURBANK        SUNNY     84  51  31 E7        29.87F
6HR MIN TEMP:  64; 6HR MAX TEMP:  84;

ONTARIO        SUNNY     86  51  29 SW6       29.88F
6HR MIN TEMP:  66; 6HR MAX TEMP:  86;

RIVERSIDE      SUNNY     89  52  28 SW6       29.87F
6HR MIN TEMP:  62; 6HR MAX TEMP:  89;

PALM SPRINGS   SUNNY    106  26   6 CALM      29.78S
6HR MIN TEMP:  76; 6HR MAX TEMP: 106;

EL CENTRO NAS  SUNNY    104  42  12 SE7       29.74F
6HR MIN TEMP:  70; 6HR MAX TEMP: 105;

IMPERIAL       SUNNY    105  35   9 N5        29.73S
6HR MIN TEMP:  74; 6HR MAX TEMP: 105;

BLYTHE         SUNNY    N/A N/A N/A MISG      29.78S
NEEDLES        SUNNY    101  26   7 NE5       29.81F
6HR MIN TEMP:  79; 6HR MAX TEMP: 101;

$$

NVZ020-UTZ003-211900-
SOUTHERN NEVADA-UTAH

CITY           SKY/WX    TMP DP  RH WIND       PRES   REMARKS
LAS VEGAS      MOSUNNY   98  26   7 VRB5      29.90S
6HR MIN TEMP:  79; 6HR MAX TEMP:  98;

SALT LAKE CITY MOSUNNY   89  31  12 NW5       30.04F
6HR MIN TEMP:  67; 6HR MAX TEMP:  89;

$$

NMZ009-TXZ055-211900-
NEW MEXICO-WEST TEXAS

CITY           SKY/WX    TMP DP  RH WIND       PRES   REMARKS
ALBUQUERQUE    MOSUNNY   83  49  30 W8        30.21F
6HR MIN TEMP:  67; 6HR MAX TEMP:  83;

EL PASO        MOSUNNY   94  49  21 E8        30.08F
6HR MIN TEMP:  77; 6HR MAX TEMP:  94;

$$


........................KEY........................
SKY/WX - SKY CONDITION/WEATHER
TMP    - TEMPERATURE IN FAHRENHEIT
DP     - DEW POINT IN FAHRENHEIT
RH     - RELATIVE HUMIDITY IN PERCENT
WIND   - DIRECTION AND SPEED IN MILES PER HOUR (MPH)
VRB    - VARIABLE WIND DIRECTION
PRES   - MEAN SEA LEVEL PRESSURE IN INCHES OF MERCURY
         F - FALLING PRESSURE   R - RISING PRESSURE
         S - STEADY PRESSURE
VSB    - VISIBILITY IN MILES
HX     - HEAT INDEX IN FAHRENHEIT
WCI    - WIND CHILL INDEX IN FAHRENHEIT
TC     - TEMPERATURE IN CELSIUS WHICH IS ALSO KNOWN AS
         TEMPERATURE IN CENTIGRADE
AFB    - AIR FORCE BASE
         LUKE AFB IS LUKE AIR FORCE BASE
         DAVIS-MONTHAN IS DAVIS-MONTHAN AIR FORCE BASE
NAS    - NAVAL AIR STATION
         EL CENTRO NAS IS EL CENTRO NAVAL AIR STATION
N/A    - NOT AVAILABLE





USA.gov is the U.S. government's official web portal to all federal, state and local government web resources and services.